Voltar ao catálogo

OPS 4682 DEB

AtivoPO
NORAD 18427·DEBRIS·🇺🇸 United States

Lançado Apr 3, 1965 de Vandenberg Space Force Base

Loading…

Próximas Passagens (próximas 24 horas)

TLE

AtualizadoSource: Space-Track

Época: Sep 14, 2026, 05:56 UTC

1 18427U 65027AB  26257.24788837  .00000547  00000-0  16690-2 0  9991
2 18427  90.2813   6.9867 0015853 356.4949  30.4948 13.05006161969954

Acompanhe OPS 4682 DEB em tempo real com AllMySat

Download on the App Store